Regional Weather Roundup
Issued by NWS Sterling, VA

Home | Current Version | Previous Version | Text Only | Print | Product List | Glossary Off
Versions: 1 2 3 4 5 6 7 8 9 10 11 12 13 14 15 16 17 18 19 20 21 22 23 24 25 26 27 28 29 30 31 32 33 34 35 36 37 38 39 40 41 42 43 44 45 46 47 48 49 50

000
ASUS41 KLWX 030710
RWRLWX

REGIONAL WEATHER ROUNDUP
NATIONAL WEATHER SERVICE BALTIMORE MD/WASHINGTON DC
300 AM EDT THU SEP 03 2015

Note: "FAIR" indicates few or no clouds below 12,000 feet
with no significant weather and/or obstructions to visibility.
 TC=TEMPERATURE CELSIUS

 * =Non NWS site. Station does not report precipitation (e.g. rain,
    snow, etc.), thunder, or fog.

DCZ001-MDZ009-015-VAZ040>042-051-053>054-030800-
WASHINGTON METRO

CITY           SKY/WX    TMP DP  RH WIND       PRES   REMARKS
WASHINGTON NAT CLEAR     76  67  73 W5        29.91F
DULLES         CLEAR     68  66  93 CALM      29.93F
ANDREWS AFB    CLEAR     73  68  83 W3        29.90F
FT BELVOIR     CLEAR     68  66  94 CALM      29.91F FOG
QUANTICO       CLEAR     71  65  81 CALM      29.92F
COLLEGE PARK*  CLEAR     73  68  83 CALM      29.90F
LEESBURG*      CLEAR     70  70 100 W3        29.93F
MANASSAS*      CLEAR     66  66 100 CALM      29.92F
GAITHERSBURG*  CLEAR     70  64  83 W3        29.96F

$$

MDZ006>007-011-014-030800-
BALTIMORE METRO

CITY           SKY/WX    TMP DP  RH WIND       PRES   REMARKS
BWI AIRPORT    CLEAR     72  68  87 W6        29.89F
MD SCIENCE CTR   N/A     76  66  71 MISG      29.89F
ANNAPOLIS      CLEAR     76  70  82 NW5       29.89F
FORT MEADE*    CLEAR     68  64  88 CALM      29.93F

$$

MDZ012-015-019>023-030800-
MARYLAND EASTERN SHORE

CITY           SKY/WX    TMP DP  RH WIND       PRES   REMARKS
OCEAN CITY     CLEAR     74  72  93 W6        29.88F
SALISBURY      CLEAR     73  71  93 W3        29.89F FOG
BAY BRIDGE AP*   N/A     75  68  78 W7        29.89F
CAMBRIDGE*     CLEAR     72  68  88 CALM      29.89S

$$

MDZ017>025-030800-
SOUTHERN MARYLAND

CITY           SKY/WX    TMP DP  RH WIND       PRES   REMARKS
PATUXENT RIVER CLEAR     72  67  84 W6        29.90F
ST INIGOES     CLEAR     73  70  90 W5        29.90F
LEONARDTOWN*   NOT AVBL

$$

MDZ003>005-030800-
NORTH CENTRAL MARYLAND

CITY           SKY/WX    TMP DP  RH WIND       PRES   REMARKS
FREDERICK*     CLEAR     68  68 100 S5        29.94F FOG
HAGERSTOWN APT CLEAR     69  66  90 S6        29.94F
WESTMINSTER*   CLEAR     72  66  83 CALM      29.93F

$$

MDZ501>502-030800-
WESTERN MARYLAND

CITY           SKY/WX    TMP DP  RH WIND       PRES   REMARKS
OAKLAND*       CLEAR     61  61 100 SW5       30.09F FOG
CUMBERLAND*    CLOUDY    68  68 100 CALM      30.01F VSB<1/4

$$

VAZ025>031-030800-
SHENANDOAH VALLEY

CITY           SKY/WX    TMP DP  RH WIND       PRES   REMARKS
WINCHESTER*    CLEAR     68  64  88 CALM      29.96F
FRONT ROYAL*   FAIR      66  64  94 S7        29.96S
LURAY*         FOG       63  63 100 CALM      29.98F VSB 1/4
NEW MARKET*    FAIR      64  63  99 CALM      29.98F
STAUNTON*        N/A     65  63  93 CALM      30.02F FOG
WAYNESBORO*    FAIR      64  63  94 CALM      30.01F

$$

WVZ021-048>050-054>055-030800-
EASTERN WEST VIRGINIA PANHANDLE

CITY           SKY/WX    TMP DP  RH WIND       PRES   REMARKS
MARTINSBURG    CLEAR     66  65  96 CALM      29.95F FOG
PETERSBURG*    FOG       64  64  99 CALM      30.00F VSB<1/4

$$

VAZ036>039-050-030800-
CENTRAL FOOTHILLS

CITY           SKY/WX    TMP DP  RH WIND       PRES   REMARKS
CHARLOTTESVILL CLEAR     66  64  93 S3        29.95F
CULPEPER*      CLEAR     64  64  99 CALM      29.94F FOG
ORANGE*        CLEAR     68  64  88 CALM      29.95F
GORDONSVILLE*  FAIR      64  64  97 CALM      29.93F
WARRENTON*     FAIR      67  67  99 CALM      29.92F

$$

VAZ055>057-030800-
NORTH AND CENTRAL PIEDMONT

CITY           SKY/WX    TMP DP  RH WIND       PRES   REMARKS
FREDERICKSBRG* CLEAR     71  70  98 CALM      29.91F
STAFFORD*      CLEAR     65  64  93 CALM      29.96F

$$

NCZ024-NYZ072-PAZ021-071-VAZ022-071-030800-
OTHER REGIONAL OBSERVATIONS

CITY           SKY/WX    TMP DP  RH WIND       PRES   REMARKS
NEW YORK CITY  CLEAR     78  68  71 CALM      29.89F
PHILADELPHIA   CLEAR     78  65  63 CALM      29.88F
PITTSBURGH     MOCLDY    71  66  84 SW5       29.99F
ROANOKE        CLEAR     68  64  87 NE3       30.02F
RICHMOND       CLEAR     70  66  87 NW3       29.93F
RALEIGH        CLOUDY    70  69  97 CALM      29.97S FOG

$$

ANZ530>537-030800-
MARINE OBSERVATIONS

STATION/POSITION TIME  TEMP    WIND        PRES
                       AIR SEA DIR/SP/G
                 (UTC) (F)     (DEG/KT/KT) (MB)
THOMAS PT LIGHT  NOT AVBL
BALT KEY BRIDGE  0600   77     260/  6/  7 1012.6F
COVE POINT       0600   75     300/  8/ 12 1013.5F
LEWISETTA        0600   73 81  290/  5/  6 1013.1F
SOLOMONS ISLAND  0600      81                N/A
PINEY POINT      0605          280/  7/  8   N/A

$$



USA.gov is the U.S. government's official web portal to all federal, state and local government web resources and services.